FW7441 Weather Reports


time (UTC)temp
C
wind
direction
speed
KPH
gust
KPH
rain 1hr
cm
rain 24hr
cm
rain mn
cm
humidity
%
barometer
mb
20260902224601 32 227 1.6 1.6 0.00 0.00 0.00 68 1012.4
20260902224056 32 205 0.0 0.0 0.00 0.00 0.00 67 1012.5
20260902223553 32 186 1.6 1.6 0.00 0.00 0.00 67 1012.5
20260902223052 32 143 1.6 3.2 0.00 0.00 0.00 66 1012.6
20260902222550 32 202 3.2 3.2 0.00 0.00 0.00 65 1012.6
20260902222049 32 237 3.2 3.2 0.00 0.00 0.00 66 1012.8
20260902221544 32 169 3.2 4.8 0.00 0.00 0.00 64 1012.5
20260902221039 33 221 0.0 3.2 0.00 0.00 0.00 64 1012.6
20260902220534 33 298 0.0 1.6 0.00 0.00 0.00 62 1012.8
20260902220029 33 202 0.0 0.0 0.00 0.00 0.00 60 1012.6
20260902215525 33 253 1.6 1.6 0.00 0.00 0.00 61 1012.5
20260902215020 33 231 1.6 1.6 0.00 0.00 0.00 60 1012.6
20260902214520 33 288 4.8 4.8 0.00 0.00 0.00 58 1012.5
20260902214019 33 257 4.8 4.8 0.00 0.00 0.00 58 1012.8
20260902213515 33 270 3.2 3.2 0.00 0.00 0.00 58 1012.9
20260902213014 34 217 1.6 3.2 0.00 0.00 0.00 58 1012.5
20260902212510 34 242 3.2 4.8 0.00 0.00 0.00 61 1012.6
20260902212006 33 222 3.2 3.2 0.00 0.00 0.00 61 1012.8
20260902211502 33 268 1.6 1.6 0.00 0.00 0.00 62 1012.8
20260902210956 33 350 4.8 8.0 0.00 0.00 0.00 60 1013.0
20260902210457 35 252 11.3 22.5 0.00 0.00 0.00 57 1012.8
20260902205955 35 235 3.2 4.8 0.00 0.00 0.00 60 1012.8
20260902205450 35 128 3.2 4.8 0.00 0.00 0.00 60 1012.9
20260902204946 34 249 0.0 0.0 0.00 0.00 0.00 60 1012.8
20260902204445 34 215 3.2 4.8 0.00 0.00 0.00 60 1012.9
20260902203941 35 219 3.2 3.2 0.00 0.00 0.00 59 1012.8
20260902203436 35 213 8.0 11.3 0.00 0.00 0.00 59 1012.5
20260902202935 35 262 1.6 1.6 0.00 0.00 0.00 57 1012.8
20260902202431 35 267 6.4 9.7 0.00 0.00 0.00 57 1013.0
20260902201928 35 208 4.8 4.8 0.00 0.00 0.00 56 1012.9
20260902201423 34 236 3.2 3.2 0.00 0.00 0.00 62 1012.8
20260902200923 33 180 3.2 3.2 0.00 0.00 0.00 61 1013.0
20260902200418 34 345 1.6 1.6 0.00 0.00 0.00 60 1013.2
20260902195913 34 222 1.6 3.2 0.00 0.00 0.00 62 1013.1
20260902195408 34 300 4.8 9.7 0.00 0.00 0.00 62 1013.1
20260902194903 35 217 1.6 1.6 0.00 0.00 0.00 62 1013.2
20260902194402 34 240 4.8 8.0 0.00 0.00 0.00 62 1013.0
20260902193857 35 206 3.2 4.8 0.00 0.00 0.00 59 1013.0
20260902193354 35 296 3.2 3.2 0.00 0.00 0.00 61 1013.2
20260902192852 34 252 1.6 1.6 0.00 0.00 0.00 63 1013.1
20260902192351 35 177 1.6 3.2 0.00 0.00 0.00 62 1013.2
20260902191845 35 255 1.6 1.6 0.00 0.00 0.00 59 1013.3
20260902191341 33 242 0.0 1.6 0.00 0.00 0.00 63 1013.4
20260902190836 33 270 3.2 4.8 0.00 0.00 0.00 60 1013.5
20260902190335 34 168 4.8 8.0 0.00 0.00 0.00 57 1013.4
20260902185832 34 227 1.6 1.6 0.00 0.00 0.00 60 1013.5
20260902185326 34 271 3.2 4.8 0.00 0.00 0.00 62 1013.4
20260902184822 35 214 3.2 3.2 0.00 0.00 0.00 63 1013.5
20260902184318 34 100 4.8 8.0 0.00 0.00 0.00 61 1013.6
20260902183813 34 255 4.8 8.0 0.00 0.00 0.00 61 1013.7
20260902183309 34 222 3.2 4.8 0.00 0.00 0.00 59 1013.9
20260902182805 34 196 8.0 9.7 0.00 0.00 0.00 60 1013.7
20260902182305 33 152 1.6 1.6 0.00 0.00 0.00 64 1013.8
20260902181757 33 221 4.8 4.8 0.00 0.00 0.00 65 1013.6
20260902181252 34 114 1.6 1.6 0.00 0.00 0.00 63 1013.8
20260902180746 33 185 3.2 3.2 0.00 0.00 0.00 63 1013.7
20260902180242 33 145 1.6 3.2 0.00 0.00 0.00 62 1013.8
20260902175737 33 227 8.0 12.9 0.00 0.00 0.00 63 1013.7
20260902175233 33 168 1.6 3.2 0.00 0.00 0.00 63 1013.8
20260902174728 33 225 1.6 3.2 0.00 0.00 0.00 64 1014.0
20260902174224 33 232 1.6 1.6 0.00 0.00 0.00 63 1013.8
20260902173720 34 134 1.6 1.6 0.00 0.00 0.00 63 1013.8
20260902173220 33 187 1.6 1.6 0.00 0.00 0.00 64 1013.8
20260902172714 33 177 1.6 3.2 0.00 0.00 0.00 64 1013.9
20260902172214 33 97 3.2 3.2 0.00 0.00 0.00 63 1014.0
20260902171709 33 228 3.2 3.2 0.00 0.00 0.00 65 1013.9
20260902171205 33 223 6.4 9.7 0.00 0.00 0.00 63 1014.1
20260902170701 33 166 0.0 3.2 0.00 0.00 0.00 66 1014.0
20260902170155 33 216 3.2 4.8 0.00 0.00 0.00 65 1013.9
20260902165650 32 229 4.8 9.7 0.00 0.00 0.00 64 1014.1
20260902165144 32 199 3.2 4.8 0.00 0.00 0.00 67 1014.4
20260902164640 32 209 1.6 1.6 0.00 0.00 0.00 66 1014.1
20260902164138 32 227 1.6 1.6 0.00 0.00 0.00 67 1014.3
20260902163634 32 156 4.8 4.8 0.00 0.00 0.00 66 1014.1
20260902163133 32 226 1.6 1.6 0.00 0.00 0.00 68 1014.5
20260902162632 32 229 3.2 3.2 0.00 0.00 0.00 67 1014.4
20260902162126 32 192 3.2 3.2 0.00 0.00 0.00 67 1014.4
20260902161622 31 197 1.6 3.2 0.00 0.00 0.00 72 1014.4
20260902161118 31 231 1.6 3.2 0.00 0.00 0.00 68 1014.4
20260902160614 32 235 1.6 1.6 0.00 0.00 0.00 69 1014.4
20260902160109 31 134 1.6 1.6 0.00 0.00 0.00 71 1014.6
20260902155607 31 220 1.6 3.2 0.00 0.00 0.00 69 1014.4
20260902155106 31 233 1.6 1.6 0.00 0.00 0.00 69 1014.8
20260902154602 31 174 1.6 3.2 0.00 0.00 0.00 69 1014.5
20260902154056 31 210 0.0 1.6 0.00 0.00 0.00 72 1014.5
20260902153554 31 179 0.0 0.0 0.00 0.00 0.00 71 1014.7
20260902153050 30 135 1.6 3.2 0.00 0.00 0.00 75 1014.7
20260902152547 30 235 1.6 1.6 0.00 0.00 0.00 73 1014.5
20260902152042 30 175 1.6 1.6 0.00 0.00 0.00 72 1014.3
20260902151538 30 196 1.6 1.6 0.00 0.00 0.00 73 1014.6
20260902151037 30 215 1.6 1.6 0.00 0.00 0.00 73 1014.7
20260902150532 30 165 1.6 1.6 0.00 0.00 0.00 72 1014.4
20260902150027 30 133 0.0 1.6 0.00 0.00 0.00 74 1014.6
20260902145517 28 254 3.2 3.2 0.00 0.00 0.00 75 1015.0
20260902145017 29 233 1.6 3.2 0.00 0.00 0.00 74 1014.7
20260902144514 30 215 0.0 1.6 0.00 0.00 0.00 75 1014.9
20260902144013 29 208 1.6 1.6 0.00 0.00 0.00 76 1014.9
20260902143509 28 272 3.2 3.2 0.00 0.00 0.00 76 1015.0
20260902143004 28 251 0.0 1.6 0.00 0.00 0.00 77 1014.9
20260902142500 28 33 1.6 1.6 0.00 0.00 0.00 77 1015.0
20260902141955 27 138 0.0 0.0 0.00 0.00 0.00 79 1014.6
20260902141449 27 219 1.6 1.6 0.00 0.00 0.00 80 1014.9
20260902140943 26 219 1.6 3.2 0.00 0.00 0.00 81 1014.9
20260902140439 26 228 0.0 0.0 0.00 0.00 0.00 84 1015.1
20260902135938 27 223 3.2 3.2 0.00 0.00 0.00 82 1015.0
20260902135435 27 233 0.0 0.0 0.00 0.00 0.00 82 1015.0
20260902134933 27 156 0.0 0.0 0.00 0.00 0.00 82 1015.1
20260902134430 27 203 0.0 0.0 0.00 0.00 0.00 81 1015.2
20260902133924 27 274 1.6 1.6 0.00 0.00 0.00 80 1015.3
20260902133419 27 303 1.6 3.2 0.00 0.00 0.00 79 1015.5
20260902132914 26 320 0.0 0.0 0.00 0.00 0.00 82 1015.0
20260902132409 26 256 1.6 3.2 0.00 0.00 0.00 81 1015.1
20260902131904 26 300 0.0 0.0 0.00 0.00 0.00 83 1015.2
20260902131401 26 180 4.8 4.8 0.00 0.00 0.00 82 1014.9
20260902130900 26 123 1.6 3.2 0.00 0.00 0.00 83 1015.9
20260902130356 26 258 0.0 0.0 0.00 0.00 0.00 83 1015.2
20260902125850 26 233 4.8 4.8 0.00 0.00 0.00 82 1015.0
20260902125347 26 266 1.6 1.6 0.00 0.00 0.00 82 1015.5
20260902124843 26 225 1.6 4.8 0.00 0.00 0.00 82 1014.9
20260902124339 26 277 0.0 1.6 0.00 0.00 0.00 82 1014.6
20260902123833 26 256 1.6 1.6 0.00 0.00 0.00 83 1014.6
20260902123330 25 204 3.2 4.8 0.00 0.00 0.00 83 1014.7
20260902122828 25 166 1.6 3.2 0.00 0.00 0.00 84 1014.8
20260902122324 25 161 0.0 0.0 0.00 0.00 0.00 84 1014.8
20260902121824 25 157 1.6 3.2 0.00 0.00 0.00 84 1014.8
20260902121319 25 237 1.6 1.6 0.00 0.00 0.00 85 1015.0
20260902120814 25 232 1.6 1.6 0.00 0.00 0.00 85 1014.5
20260902120311 25 214 1.6 1.6 0.00 0.00 0.00 85 1014.6
20260902115805 25 183 0.0 0.0 0.00 0.00 0.00 86 1014.7
20260902115306 25 218 1.6 1.6 0.00 0.00 0.00 86 1014.5
20260902114757 25 186 3.2 8.0 0.00 0.00 0.00 87 1014.2
20260902114253 25 179 1.6 1.6 0.00 0.00 0.00 88 1014.4
20260902113748 25 232 3.2 3.2 0.00 0.00 0.00 88 1014.4
20260902113243 24 207 3.2 4.8 0.00 0.00 0.00 88 1014.4
20260902112742 25 230 0.0 0.0 0.00 0.00 0.00 88 1014.5
20260902112240 25 171 0.0 1.6 0.00 0.00 0.00 88 1014.2
20260902111735 24 192 0.0 1.6 0.00 0.00 0.00 88 1014.4
20260902111231 25 227 1.6 1.6 0.00 0.00 0.00 88 1014.4
20260902110726 24 213 1.6 1.6 0.00 0.00 0.00 87 1014.2
20260902110222 24 211 3.2 3.2 0.00 0.00 0.00 88 1014.3
20260902105721 24 194 1.6 1.6 0.00 0.00 0.00 88 1014.3
20260902105217 24 163 1.6 1.6 0.00 0.00 0.00 89 1014.4
20260902104712 24 164 3.2 3.2 0.00 0.00 0.00 89 1014.6
20260902104209 24 231 1.6 1.6 0.00 0.00 0.00 89 1014.1
20260902103708 24 178 1.6 1.6 0.00 0.00 0.00 89 1014.3
20260902103202 24 213 0.0 0.0 0.00 0.00 0.00 89 1014.6
20260902102658 24 232 0.0 0.0 0.00 0.00 0.00 89 1014.3
20260902102156 24 183 0.0 0.0 0.00 0.00 0.00 89 1014.6
20260902101650 24 232 1.6 3.2 0.00 0.00 0.00 89 1014.6
20260902101150 25 232 0.0 1.6 0.00 0.00 0.00 89 1014.6
20260902100645 25 207 0.0 1.6 0.00 0.00 0.00 89 1014.5
20260902100139 25 309 1.6 1.6 0.00 0.00 0.00 89 1014.5
20260902095639 24 210 0.0 0.0 0.00 0.00 0.00 89 1014.4
20260902095138 25 218 0.0 0.0 0.00 0.00 0.00 89 1014.5
20260902094633 25 202 1.6 1.6 0.00 0.00 0.00 89 1014.6
20260902094130 25 185 3.2 4.8 0.00 0.00 0.00 89 1014.5
20260902093623 25 171 0.0 1.6 0.00 0.00 0.00 89 1014.5
20260902093118 25 208 0.0 0.0 0.00 0.00 0.00 89 1014.7
20260902092613 25 178 1.6 1.6 0.00 0.00 0.00 89 1014.6
20260902092108 25 190 0.0 1.6 0.00 0.00 0.00 89 1014.6
20260902091603 25 208 0.0 1.6 0.00 0.00 0.00 89 1014.5
20260902091059 25 220 0.0 0.0 0.00 0.00 0.00 89 1014.6
20260902090555 25 196 0.0 1.6 0.00 0.00 0.00 89 1014.5
20260902090053 25 185 3.2 3.2 0.00 0.00 0.00 89 1014.3
20260902085548 25 282 3.2 3.2 0.00 0.00 0.00 90 1014.6
20260902085043 25 202 0.0 0.0 0.00 0.00 0.00 90 1014.5
20260902084539 25 175 1.6 1.6 0.00 0.00 0.00 89 1014.4
20260902084035 25 208 0.0 0.0 0.00 0.00 0.00 89 1014.3
20260902083525 25 187 1.6 3.2 0.00 0.00 0.00 89 1014.4
20260902083025 25 223 0.0 1.6 0.00 0.00 0.00 89 1014.4
20260902082520 25 206 1.6 1.6 0.00 0.00 0.00 89 1014.5
20260902082017 25 175 0.0 0.0 0.00 0.00 0.00 89 1014.3
20260902081513 25 182 0.0 0.0 0.00 0.00 0.00 88 1014.2
20260902081012 25 217 0.0 0.0 0.00 0.00 0.00 88 1014.2
20260902080509 25 218 0.0 1.6 0.00 0.00 0.00 88 1014.4
20260902080004 25 195 3.2 3.2 0.00 0.00 0.00 88 1014.3
20260902075459 25 196 0.0 1.6 0.00 0.00 0.00 87 1014.4
20260902074954 25 271 1.6 3.2 0.00 0.00 0.00 88 1014.3
20260902074449 25 208 0.0 1.6 0.00 0.00 0.00 88 1014.2
20260902073944 25 205 0.0 0.0 0.00 0.00 0.00 87 1014.4
20260902073440 25 175 1.6 1.6 0.00 0.00 0.00 87 1014.5
20260902072936 25 189 1.6 1.6 0.00 0.00 0.00 87 1014.5
20260902072432 25 237 1.6 1.6 0.00 0.00 0.00 87 1014.3
20260902071928 25 163 1.6 3.2 0.00 0.00 0.00 88 1014.3
20260902071427 25 163 1.6 3.2 0.00 0.00 0.00 88 1014.4
20260902070924 25 200 0.0 0.0 0.00 0.00 0.00 88 1014.4
20260902070420 25 200 0.0 1.6 0.00 0.00 0.00 88 1014.2
20260902065918 25 243 3.2 3.2 0.00 0.00 0.00 88 1014.3
20260902065413 25 206 0.0 0.0 0.00 0.00 0.00 88 1014.2
20260902064908 25 222 1.6 1.6 0.00 0.00 0.00 88 1014.3
20260902064404 25 174 1.6 1.6 0.00 0.00 0.00 88 1014.5
20260902063900 25 158 1.6 1.6 0.00 0.00 0.00 88 1014.4
20260902063354 26 199 0.0 0.0 0.00 0.00 0.00 88 1014.5
20260902062854 26 237 0.0 0.0 0.00 0.00 0.00 88 1014.4
20260902062354 26 221 0.0 0.0 0.00 0.00 0.00 88 1014.7
20260902061853 26 212 1.6 1.6 0.00 0.00 0.00 88 1014.7
20260902061349 26 197 0.0 1.6 0.00 0.00 0.00 87 1014.4
20260902060845 26 232 1.6 1.6 0.00 0.00 0.00 87 1014.4
20260902060340 26 227 3.2 4.8 0.00 0.00 0.00 87 1014.5
20260902055836 26 186 3.2 3.2 0.00 0.00 0.00 87 1014.1
20260902055332 26 185 1.6 3.2 0.00 0.00 0.00 87 1014.3
20260902054827 26 161 1.6 3.2 0.00 0.00 0.00 87 1014.5
20260902054323 26 239 6.4 8.0 0.00 0.00 0.00 87 1014.5
20260902053818 26 212 1.6 1.6 0.00 0.00 0.00 87 1014.4
20260902053313 26 221 3.2 3.2 0.00 0.00 0.00 88 1014.2
20260902052812 26 166 1.6 1.6 0.00 0.00 0.00 88 1014.3
20260902052308 26 192 1.6 3.2 0.00 0.00 0.00 88 1014.4
20260902051802 26 196 0.0 1.6 0.00 0.00 0.00 88 1014.5
20260902051301 26 211 1.6 3.2 0.00 0.00 0.00 88 1014.2
20260902050757 26 192 0.0 1.6 0.00 0.00 0.00 88 1014.4
20260902050251 26 203 0.0 0.0 0.00 0.00 0.00 88 1014.3
20260902045751 26 220 0.0 0.0 0.00 0.00 0.00 88 1014.3
20260902045247 26 242 1.6 1.6 0.00 0.00 0.00 88 1014.4
20260902044743 26 217 0.0 0.0 0.00 0.00 0.00 87 1014.3
20260902044238 26 225 3.2 3.2 0.00 0.00 0.00 87 1014.4
20260902043733 26 354 3.2 4.8 0.00 0.00 0.00 87 1014.3
20260902043229 26 165 1.6 3.2 0.00 0.00 0.00 87 1014.2
20260902042728 27 171 1.6 1.6 0.00 0.00 0.00 87 1014.4
20260902042223 27 205 1.6 3.2 0.00 0.00 0.00 86 1014.2
20260902041718 27 154 3.2 3.2 0.00 0.00 0.00 86 1014.3
20260902041213 27 204 1.6 3.2 0.00 0.00 0.00 86 1014.3
20260902040712 27 165 1.6 3.2 0.00 0.00 0.00 86 1014.4
20260902040208 27 195 0.0 1.6 0.00 0.00 0.00 86 1014.4
20260902035706 27 201 1.6 3.2 0.00 0.00 0.00 85 1014.3
20260902035202 27 212 1.6 1.6 0.00 0.00 0.00 85 1014.2
20260902034701 27 154 1.6 1.6 0.00 0.00 0.00 85 1014.5
20260902034200 27 213 3.2 8.0 0.00 0.00 0.00 85 1014.3
20260902033659 27 232 4.8 8.0 0.00 0.00 0.00 86 1014.5
20260902033154 27 205 0.0 0.0 0.00 0.00 0.00 86 1014.6
20260902032653 27 214 1.6 1.6 0.00 0.00 0.00 86 1014.5
20260902032148 27 251 1.6 1.6 0.00 0.00 0.00 87 1014.6
20260902031642 27 221 1.6 1.6 0.00 0.00 0.00 86 1014.6
20260902031138 27 184 1.6 1.6 0.00 0.00 0.00 86 1014.4
20260902030634 27 189 0.0 1.6 0.00 0.00 0.00 87 1014.7
20260902030133 27 222 1.6 8.0 0.00 0.00 0.00 87 1014.8
20260902025632 27 242 3.2 3.2 0.00 0.00 0.00 87 1014.7
20260902025128 27 234 3.2 3.2 0.00 0.00 0.00 88 1014.5
20260902024623 27 137 3.2 4.8 0.00 0.00 0.00 88 1014.8
20260902024118 27 184 0.0 1.6 0.00 0.00 0.00 88 1014.5
20260902023614 27 222 1.6 3.2 0.00 0.00 0.00 89 1014.4
20260902023108 27 207 0.0 1.6 0.00 0.00 0.00 89 1014.5
20260902022608 27 198 0.0 1.6 0.00 0.00 0.00 89 1014.4
20260902022104 27 204 1.6 1.6 0.00 0.00 0.00 89 1014.5
20260902021559 27 219 3.2 3.2 0.00 0.00 0.00 89 1014.8
20260902021054 27 225 0.0 0.0 0.00 0.00 0.00 89 1014.3
20260902020550 27 212 0.0 0.0 0.00 0.00 0.00 89 1014.6
20260902020046 27 214 0.0 0.0 0.00 0.00 0.00 88 1014.5
20260902015541 27 204 1.6 1.6 0.00 0.00 0.00 88 1014.5
20260902015037 27 194 0.0 0.0 0.00 0.00 0.00 87 1014.5
20260902014533 27 196 0.0 0.0 0.00 0.00 0.00 87 1014.2
20260902014028 28 255 1.6 1.6 0.00 0.00 0.00 87 1014.2
20260902013527 28 196 0.0 0.0 0.00 0.00 0.00 86 1014.2
20260902013023 28 186 0.0 1.6 0.00 0.00 0.00 86 1014.1
20260902012518 28 222 0.0 0.0 0.00 0.00 0.00 87 1014.0
20260902012014 28 183 0.0 0.0 0.00 0.00 0.00 87 1014.0
20260902011509 28 195 0.0 1.6 0.00 0.00 0.00 88 1014.1
20260902011009 28 204 0.0 0.0 0.00 0.00 0.00 88 1013.7
20260902010509 28 207 0.0 0.0 0.00 0.00 0.00 88 1013.9
20260902010004 28 207 0.0 0.0 0.00 0.00 0.00 88 1013.6
20260902005502 28 207 0.0 0.0 0.00 0.00 0.00 87 1013.6
20260902004959 28 207 0.0 0.0 0.00 0.00 0.00 87 1013.5
20260902004458 28 206 0.0 0.0 0.00 0.00 0.00 86 1013.5
20260902003954 28 206 0.0 0.0 0.00 0.00 0.00 86 1013.6
20260902003448 28 235 0.0 0.0 0.00 0.00 0.00 85 1013.6
20260902002944 29 211 0.0 0.0 0.00 0.00 0.00 85 1013.4
20260902002439 29 191 0.0 0.0 0.00 0.00 0.00 84 1013.7
20260902001938 30 191 0.0 0.0 0.00 0.00 0.00 83 1013.4
20260902001433 30 215 0.0 0.0 0.00 0.00 0.00 83 1013.5
20260902000928 30 212 0.0 0.0 0.00 0.00 0.00 82 1013.6
20260902000423 30 206 1.6 3.2 0.00 0.00 0.00 82 1013.7
20260901235918 30 200 0.0 0.0 0.00 0.00 0.00 82 1013.4
20260901235413 30 208 0.0 0.0 0.00 0.00 0.00 81 1013.6
20260901234908 31 208 0.0 0.0 0.00 0.00 0.00 80 1013.7
20260901234402 31 205 1.6 1.6 0.00 0.00 0.00 79 1013.7
20260901233857 31 161 1.6 1.6 0.00 0.00 0.00 79 1013.7
20260901233352 31 229 1.6 3.2 0.00 0.00 0.00 79 1013.6
20260901232849 31 199 0.0 1.6 0.00 0.00 0.00 79 1013.6
20260901232343 31 246 1.6 1.6 0.00 0.00 0.00 79 1013.8
20260901231839 31 191 1.6 1.6 0.00 0.00 0.00 78 1013.6
20260901231335 31 240 0.0 1.6 0.00 0.00 0.00 78 1013.6
20260901230831 32 196 0.0 0.0 0.00 0.00 0.00 77 1013.7
20260901230330 32 194 0.0 1.6 0.00 0.00 0.00 77 1013.8
20260901225826 32 181 1.6 1.6 0.00 0.00 0.00 76 1013.8
20260901225325 32 252 3.2 3.2 0.00 0.00 0.00 75 1013.7
20260901224820 32 224 1.6 3.2 0.00 0.00 0.00 75 1013.8